,,,PA_Meas_PMT16A,,PR_Meas_QMR101_102,,RH_Meas_QMH101,,SR_Meas_QMS101,,TA_Meas_QMH101,,GenWind,,GenWind,
date,time,status,PA,status,PR,status,RH,status,SR,status,TA,status,DirAvg,status,SpdAvg,
2011-12-23, 00:00:04,VALID,1000.01,VALID,0,VALID,89.5402,VALID,0,VALID,24.9885,VALID,328,VALID,0.385938,
2011-12-23, 00:01:04,VALID,1000.03,VALID,0,VALID,89.502,VALID,0,VALID,24.9885,VALID,291,VALID,0.6875,
2011-12-23, 00:02:04,VALID,1000,VALID,0,VALID,89.5402,VALID,0.0815089,VALID,24.9476,VALID,301,VALID,0.170312,
2011-12-23, 00:03:04,VALID,999.997,VALID,0,VALID,89.6851,VALID,0,VALID,24.9495,VALID,343,VALID,0.437891,
2011-12-23, 00:04:04,VALID,999.998,VALID,0,VALID,89.3723,VALID,0.0815089,VALID,24.8892,VALID,300,VALID,1.14102,
2011-12-23, 00:05:04,VALID,999.984,VALID,0,VALID,89.4181,VALID,0,VALID,24.8892,VALID,289,VALID,0.794922,
2011-12-23, 00:06:04,VALID,999.984,VALID,0,VALID,89.4944,VALID,0,VALID,24.8697,VALID,290,VALID,0.600391,
2011-12-23, 00:07:04,VALID,999.965,VALID,0,VALID,89.5554,VALID,0,VALID,24.8716,VALID,315,VALID,0.548437,
2011-12-23, 00:08:04,VALID,999.913,VALID,0,VALID,89.5402,VALID,0,VALID,24.8503,VALID,260,VALID,0.498047,
2011-12-23, 00:09:04,VALID,999.924,VALID,0,VALID,89.7461,VALID,0,VALID,24.8308,VALID,263,VALID,0.126563,
2011-12-23, 00:10:04,VALID,999.897,VALID,0,VALID,89.2884,VALID,0,VALID,24.8308,VALID,281,VALID,1.03164,
2011-12-23, 00:11:04,VALID,999.87,VALID,0,VALID,89.5478,VALID,0,VALID,24.8113,VALID,281,VALID,0.414844,
2011-12-23, 00:12:04,VALID,999.854,VALID,0,VALID,89.502,VALID,0,VALID,24.8113,VALID,282,VALID,0.221484,
2011-12-23, 00:13:04,VALID,999.843,VALID,0,VALID,89.441,VALID,0,VALID,24.7705,VALID,282,VALID,0.120312,
2011-12-23, 00:14:04,VALID,999.862,VALID,0,VALID,89.4257,VALID,0,VALID,24.7919,VALID,288,VALID,0.446484,
2011-12-23, 00:15:04,VALID,999.829,VALID,0,VALID,89.4486,VALID,0,VALID,24.7724,VALID,296,VALID,0.187109,
2011-12-23, 00:16:04,VALID,999.832,VALID,0,VALID,89.708,VALID,0.0815089,VALID,24.7724,VALID,296,VALID,0.0597656,
2011-12-23, 00:17:04,VALID,999.847,VALID,0,VALID,89.6393,VALID,0,VALID,24.7529,VALID,296,VALID,0,
2011-12-23, 00:18:04,VALID,999.846,VALID,0,VALID,89.8911,VALID,0,VALID,24.7724,VALID,296,VALID,0,
2011-12-23, 00:19:04,VALID,999.855,VALID,0,VALID,89.8301,VALID,0,VALID,24.7529,VALID,296,VALID,0,
2011-12-23, 00:20:04,VALID,999.839,VALID,0,VALID,89.8453,VALID,0,VALID,24.7353,VALID,296,VALID,0,
2011-12-23, 00:21:04,VALID,999.852,VALID,0,VALID,89.5631,VALID,0,VALID,24.714,VALID,312,VALID,0.461328,
2011-12-23, 00:22:04,VALID,999.805,VALID,0,VALID,89.6317,VALID,0,VALID,24.6926,VALID,327,VALID,0.232422,
2011-12-23, 00:23:04,VALID,999.836,VALID,0,VALID,89.7614,VALID,0.0815089,VALID,24.6926,VALID,327,VALID,0.196094,
2011-12-23, 00:24:04,VALID,999.806,VALID,0,VALID,89.8377,VALID,0.0815089,VALID,24.6945,VALID,327,VALID,0,
2011-12-23, 00:25:04,VALID,999.773,VALID,0,VALID,90.0208,VALID,0,VALID,24.6945,VALID,327,VALID,0,
2011-12-23, 00:26:04,VALID,999.775,VALID,0,VALID,90.181,VALID,0,VALID,24.6945,VALID,327,VALID,0.216406,
2011-12-23, 00:27:04,VALID,999.778,VALID,0,VALID,90.1734,VALID,0.0815089,VALID,24.675,VALID,327,VALID,0.403906,
2011-12-23, 00:28:04,VALID,999.789,VALID,0,VALID,90.9286,VALID,0,VALID,24.6964,VALID,327,VALID,0.35625,
2011-12-23, 00:29:04,VALID,999.794,VALID,0,VALID,91.1499,VALID,0,VALID,24.6556,VALID,328,VALID,0.512891,
2011-12-23, 00:30:04,VALID,999.766,VALID,0,VALID,91.2567,VALID,0,VALID,24.6574,VALID,335,VALID,0.504687,
2011-12-23, 00:31:04,VALID,999.741,VALID,0,VALID,91.6229,VALID,0,VALID,24.5972,VALID,335,VALID,0.323047,
2011-12-23, 00:32:04,VALID,999.763,VALID,0,VALID,91.7602,VALID,0.0815089,VALID,24.5582,VALID,335,VALID,0.330859,
2011-12-23, 00:33:04,VALID,999.753,VALID,0,VALID,91.9356,VALID,0,VALID,24.5193,VALID,335,VALID,0.251172,
2011-12-23, 00:34:04,VALID,999.72,VALID,0,VALID,92.2255,VALID,0,VALID,24.5193,VALID,335,VALID,0.298828,
2011-12-23, 00:35:04,VALID,999.702,VALID,0,VALID,92.3705,VALID,0,VALID,24.4804,VALID,335,VALID,0.403906,
2011-12-23, 00:36:04,VALID,999.725,VALID,0,VALID,92.2866,VALID,0,VALID,24.4609,VALID,335,VALID,0.325781,
2011-12-23, 00:37:04,VALID,999.699,VALID,0,VALID,92.5307,VALID,0.0815089,VALID,24.4414,VALID,335,VALID,0.558203,
2011-12-23, 00:38:04,VALID,999.707,VALID,0,VALID,92.5231,VALID,0,VALID,24.422,VALID,335,VALID,0.593359,
2011-12-23, 00:39:04,VALID,999.699,VALID,0,VALID,92.546,VALID,0,VALID,24.4043,VALID,335,VALID,0.312891,
2011-12-23, 00:40:04,VALID,999.674,VALID,0,VALID,92.8282,VALID,0,VALID,24.4025,VALID,335,VALID,0.539453,
2011-12-23, 00:41:04,VALID,999.668,VALID,0,VALID,92.5536,VALID,0,VALID,24.3849,VALID,336,VALID,0.402734,
2011-12-23, 00:42:04,VALID,999.626,VALID,0,VALID,92.5536,VALID,0,VALID,24.4043,VALID,5,VALID,0.705859,
2011-12-23, 00:43:04,VALID,999.614,VALID,0,VALID,92.5078,VALID,0,VALID,24.422,VALID,346,VALID,0.741797,
2011-12-23, 00:44:04,VALID,999.57,VALID,0,VALID,92.5917,VALID,0,VALID,24.4414,VALID,346,VALID,0.153906,
2011-12-23, 00:45:04,VALID,999.539,VALID,0,VALID,92.4544,VALID,0,VALID,24.4804,VALID,346,VALID,0,
2011-12-23, 00:46:04,VALID,999.531,VALID,0,VALID,92.401,VALID,0,VALID,24.5406,VALID,253,VALID,0.396484,
2011-12-23, 00:47:04,VALID,999.487,VALID,0,VALID,92.2332,VALID,0,VALID,24.5582,VALID,265,VALID,0.149219,
2011-12-23, 00:48:04,VALID,999.485,VALID,0,VALID,92.1035,VALID,0,VALID,24.599,VALID,265,VALID,0.0199219,
2011-12-23, 00:49:04,VALID,999.481,VALID,0,VALID,92.1264,VALID,0,VALID,24.6361,VALID,265,VALID,0.0347656,
2011-12-23, 00:50:04,VALID,999.459,VALID,0,VALID,92.1416,VALID,0,VALID,24.6769,VALID,267,VALID,0.0148437,
2011-12-23, 00:51:04,VALID,999.475,VALID,0,VALID,91.8899,VALID,0,VALID,24.6556,VALID,267,VALID,0.245703,
2011-12-23, 00:52:04,VALID,999.459,VALID,0,VALID,91.5771,VALID,0,VALID,24.6556,VALID,269,VALID,0.373828,
2011-12-23, 00:53:04,VALID,999.435,VALID,0,VALID,91.6534,VALID,0,VALID,24.675,VALID,269,VALID,0,
2011-12-23, 00:54:04,VALID,999.407,VALID,0,VALID,91.4016,VALID,0,VALID,24.6945,VALID,315,VALID,0.454688,
2011-12-23, 00:55:04,VALID,999.357,VALID,0,VALID,91.4398,VALID,0,VALID,24.7353,VALID,348,VALID,0.211719,
2011-12-23, 00:56:04,VALID,999.34,VALID,0,VALID,91.4703,VALID,0,VALID,24.7335,VALID,348,VALID,0.169922,
2011-12-23, 00:57:04,VALID,999.327,VALID,0,VALID,91.4321,VALID,0,VALID,24.7529,VALID,348,VALID,0.330078,
2011-12-23, 00:58:04,VALID,999.286,VALID,0,VALID,91.3864,VALID,0,VALID,24.7335,VALID,348,VALID,0.141406,
2011-12-23, 00:59:04,VALID,999.286,VALID,0,VALID,91.2796,VALID,0,VALID,24.7529,VALID,348,VALID,0.499219,
2011-12-23, 01:00:04,VALID,999.245,VALID,0,VALID,91.2872,VALID,0,VALID,24.7743,VALID,348,VALID,0.25625,
2011-12-23, 01:01:04,VALID,999.222,VALID,0,VALID,91.4092,VALID,0,VALID,24.7335,VALID,348,VALID,0.00585938,
2011-12-23, 01:02:04,VALID,999.229,VALID,0,VALID,91.4321,VALID,0,VALID,24.7743,VALID,348,VALID,0,
2011-12-23, 01:03:04,VALID,999.197,VALID,0,VALID,91.4779,VALID,0,VALID,24.7529,VALID,348,VALID,0.0644531,
2011-12-23, 01:04:04,VALID,999.21,VALID,0,VALID,91.3787,VALID,0,VALID,24.7548,VALID,348,VALID,0.148828,
2011-12-23, 01:05:04,VALID,999.177,VALID,0,VALID,91.4321,VALID,0,VALID,24.714,VALID,346,VALID,0.243359,
2011-12-23, 01:06:04,VALID,999.145,VALID,0,VALID,91.4779,VALID,0,VALID,24.7548,VALID,345,VALID,0.296875,
2011-12-23, 01:07:04,VALID,999.135,VALID,0,VALID,91.4321,VALID,0,VALID,24.7548,VALID,344,VALID,0.3125,
2011-12-23, 01:08:04,VALID,999.12,VALID,0,VALID,91.4245,VALID,0,VALID,24.7335,VALID,292,VALID,0.0152344,
2011-12-23, 01:09:04,VALID,999.13,VALID,0,VALID,91.3711,VALID,0,VALID,24.7335,VALID,9,VALID,0.371484,
2011-12-23, 01:10:04,VALID,999.079,VALID,0,VALID,91.4016,VALID,0,VALID,24.7529,VALID,18,VALID,0.478906,
2011-12-23, 01:11:04,VALID,999.068,VALID,0,VALID,91.4321,VALID,0,VALID,24.7937,VALID,15,VALID,0,
2011-12-23, 01:12:04,VALID,999.016,VALID,0,VALID,91.2872,VALID,0,VALID,24.7743,VALID,307,VALID,0.779688,
2011-12-23, 01:13:04,VALID,999.032,VALID,0,VALID,91.333,VALID,0,VALID,24.7919,VALID,345,VALID,0.172656,
2011-12-23, 01:14:04,VALID,998.994,VALID,0,VALID,91.3558,VALID,0,VALID,24.7724,VALID,298,VALID,0.228516,
2011-12-23, 01:15:04,VALID,998.954,VALID,0,VALID,91.3253,VALID,0,VALID,24.7919,VALID,296,VALID,0.171875,
2011-12-23, 01:16:04,VALID,998.928,VALID,0,VALID,91.2719,VALID,0,VALID,24.7705,VALID,355,VALID,0.594531,
2011-12-23, 01:17:04,VALID,998.916,VALID,0,VALID,91.2872,VALID,0,VALID,24.7919,VALID,360,VALID,0.414453,
2011-12-23, 01:18:04,VALID,998.911,VALID,0,VALID,91.3253,VALID,0,VALID,24.8113,VALID,360,VALID,0.0449219,
2011-12-23, 01:19:04,VALID,998.881,VALID,0,VALID,91.3787,VALID,0,VALID,24.8113,VALID,360,VALID,0.0132813,
2011-12-23, 01:20:04,VALID,998.914,VALID,0,VALID,91.4016,VALID,0,VALID,24.7919,VALID,358,VALID,0.591016,
2011-12-23, 01:21:04,VALID,998.928,VALID,0,VALID,91.4855,VALID,0,VALID,24.7937,VALID,352,VALID,0.121094,
2011-12-23, 01:22:04,VALID,998.951,VALID,0,VALID,91.5237,VALID,0,VALID,24.7705,VALID,346,VALID,0.238672,
2011-12-23, 01:23:04,VALID,998.942,VALID,0,VALID,91.5313,VALID,0,VALID,24.8113,VALID,295,VALID,0.545313,
2011-12-23, 01:24:04,VALID,998.946,VALID,0,VALID,91.4855,VALID,0,VALID,24.7919,VALID,284,VALID,1.0375,
2011-12-23, 01:25:04,VALID,998.949,VALID,0,VALID,91.5771,VALID,0,VALID,24.8113,VALID,293,VALID,0.75,
2011-12-23, 01:26:04,VALID,998.93,VALID,0,VALID,91.5695,VALID,0,VALID,24.8327,VALID,286,VALID,0.719531,
2011-12-23, 01:27:04,VALID,998.886,VALID,0,VALID,91.2567,VALID,0,VALID,24.8327,VALID,287,VALID,1.02344,
2011-12-23, 01:28:04,VALID,998.873,VALID,0,VALID,91.2109,VALID,0,VALID,24.8308,VALID,286,VALID,0.641406,
2011-12-23, 01:29:04,VALID,998.821,VALID,0,VALID,91.2719,VALID,0,VALID,24.8503,VALID,290,VALID,0.492188,
2011-12-23, 01:30:04,VALID,998.837,VALID,0,VALID,91.2338,VALID,0,VALID,24.8716,VALID,283,VALID,0.475,
2011-12-23, 01:31:04,VALID,998.804,VALID,0,VALID,91.2796,VALID,0,VALID,24.8697,VALID,283,VALID,0.432422,
2011-12-23, 01:32:04,VALID,998.814,VALID,0,VALID,91.1804,VALID,0,VALID,24.8911,VALID,281,VALID,0.300781,
2011-12-23, 01:33:04,VALID,998.823,VALID,0,VALID,91.1346,VALID,0,VALID,24.8697,VALID,283,VALID,0.432813,
2011-12-23, 01:34:04,VALID,998.807,VALID,0,VALID,91.1575,VALID,0,VALID,24.8892,VALID,282,VALID,0.554688,
2011-12-23, 01:35:04,VALID,998.81,VALID,0,VALID,91.1651,VALID,0,VALID,24.8697,VALID,282,VALID,0.123047,
2011-12-23, 01:36:04,VALID,998.808,VALID,0,VALID,91.2414,VALID,0,VALID,24.8697,VALID,282,VALID,0.325,
2011-12-23, 01:37:04,VALID,998.807,VALID,0,VALID,91.3024,VALID,0,VALID,24.8697,VALID,286,VALID,0.307422,
2011-12-23, 01:38:04,VALID,998.809,VALID,0,VALID,91.1575,VALID,0,VALID,24.8503,VALID,286,VALID,0.637891,
2011-12-23, 01:39:04,VALID,998.803,VALID,0,VALID,91.127,VALID,0,VALID,24.8697,VALID,288,VALID,0.824609,
2011-12-23, 01:40:04,VALID,998.809,VALID,0,VALID,91.127,VALID,0,VALID,24.8503,VALID,296,VALID,0.328906,
2011-12-23, 01:41:04,VALID,998.782,VALID,0,VALID,91.2414,VALID,0,VALID,24.8503,VALID,296,VALID,0.0820313,
2011-12-23, 01:42:04,VALID,998.774,VALID,0,VALID,91.3024,VALID,0,VALID,24.8697,VALID,296,VALID,0.00664063,
2011-12-23, 01:43:04,VALID,998.748,VALID,0,VALID,91.4016,VALID,0,VALID,24.8503,VALID,296,VALID,0,
2011-12-23, 01:44:04,VALID,998.755,VALID,0,VALID,91.5084,VALID,0,VALID,24.8503,VALID,296,VALID,0,
2011-12-23, 01:45:04,VALID,998.759,VALID,0,VALID,91.5084,VALID,0,VALID,24.8308,VALID,296,VALID,0,
2011-12-23, 01:46:04,VALID,998.732,VALID,0,VALID,91.5161,VALID,0,VALID,24.8308,VALID,293,VALID,0.283594,
2011-12-23, 01:47:04,VALID,998.745,VALID,0,VALID,91.4779,VALID,0,VALID,24.8522,VALID,293,VALID,0.522266,
2011-12-23, 01:48:04,VALID,998.718,VALID,0,VALID,91.4779,VALID,0,VALID,24.8716,VALID,293,VALID,0.196094,
2011-12-23, 01:49:04,VALID,998.727,VALID,0,VALID,91.5161,VALID,0,VALID,24.8522,VALID,292,VALID,0.339063,
2011-12-23, 01:50:04,VALID,998.727,VALID,0,VALID,91.6305,VALID,0,VALID,24.8327,VALID,291,VALID,0.352344,
2011-12-23, 01:51:04,VALID,998.711,VALID,0,VALID,91.6991,VALID,0,VALID,24.8327,VALID,290,VALID,0.00703125,
2011-12-23, 01:52:04,VALID,998.734,VALID,0,VALID,91.6076,VALID,0,VALID,24.79,VALID,292,VALID,0.326562,
2011-12-23, 01:53:04,VALID,998.74,VALID,0,VALID,91.7068,VALID,0,VALID,24.79,VALID,292,VALID,0.000390625,
2011-12-23, 01:54:04,VALID,998.709,VALID,0,VALID,91.6305,VALID,0,VALID,24.79,VALID,318,VALID,0.328906,
2011-12-23, 01:55:04,VALID,998.714,VALID,0,VALID,91.6763,VALID,0,VALID,24.8113,VALID,319,VALID,0.257422,
2011-12-23, 01:56:04,VALID,998.722,VALID,0,VALID,91.7144,VALID,0,VALID,24.8113,VALID,321,VALID,0.325391,
2011-12-23, 01:57:04,VALID,998.713,VALID,0,VALID,91.7754,VALID,0,VALID,24.8113,VALID,322,VALID,0,
2011-12-23, 01:58:04,VALID,998.719,VALID,0,VALID,91.8136,VALID,0,VALID,24.8308,VALID,344,VALID,0.351563,
2011-12-23, 01:59:04,VALID,998.686,VALID,0,VALID,91.8212,VALID,0,VALID,24.8327,VALID,344,VALID,0.492188,
2011-12-23, 02:00:04,VALID,998.682,VALID,0,VALID,91.8594,VALID,0,VALID,24.8308,VALID,319,VALID,0.137891,
2011-12-23, 02:01:04,VALID,998.677,VALID,0,VALID,91.8822,VALID,0,VALID,24.8522,VALID,345,VALID,0.819531,
2011-12-23, 02:02:04,VALID,998.65,VALID,0,VALID,91.7983,VALID,0,VALID,24.8522,VALID,353,VALID,0.551953,
2011-12-23, 02:03:04,VALID,998.66,VALID,0,VALID,91.7525,VALID,0,VALID,24.8308,VALID,353,VALID,0.126172,
2011-12-23, 02:04:04,VALID,998.619,VALID,0,VALID,91.8441,VALID,0,VALID,24.8716,VALID,353,VALID,0.157031,
2011-12-23, 02:05:04,VALID,998.605,VALID,0,VALID,91.8899,VALID,0,VALID,24.8503,VALID,353,VALID,0.0105469,
2011-12-23, 02:06:04,VALID,998.594,VALID,0,VALID,91.9128,VALID,0,VALID,24.8716,VALID,353,VALID,0.0679687,
2011-12-23, 02:07:04,VALID,998.594,VALID,0,VALID,91.9433,VALID,0,VALID,24.8503,VALID,353,VALID,0,
2011-12-23, 02:08:04,VALID,998.562,VALID,0,VALID,91.989,VALID,0,VALID,24.8716,VALID,351,VALID,0.065625,
2011-12-23, 02:09:04,VALID,998.55,VALID,0,VALID,92.1492,VALID,0,VALID,24.8503,VALID,351,VALID,0.144922,
2011-12-23, 02:10:04,VALID,998.527,VALID,0,VALID,92.1874,VALID,0,VALID,24.8716,VALID,348,VALID,0,
2011-12-23, 02:11:04,VALID,998.494,VALID,0,VALID,92.1035,VALID,0,VALID,24.8911,VALID,348,VALID,0.4875,
2011-12-23, 02:12:04,VALID,998.472,VALID,0,VALID,92.1111,VALID,0,VALID,24.8697,VALID,349,VALID,0.460156,
2011-12-23, 02:13:04,VALID,998.456,VALID,0,VALID,92.0577,VALID,0,VALID,24.8911,VALID,350,VALID,0.632031,
2011-12-23, 02:14:04,VALID,998.418,VALID,0,VALID,92.0806,VALID,0,VALID,24.8892,VALID,356,VALID,0.852344,
2011-12-23, 02:15:04,VALID,998.401,VALID,0,VALID,91.9433,VALID,0,VALID,24.8892,VALID,350,VALID,0.729688,
2011-12-23, 02:16:04,VALID,998.402,VALID,0,VALID,91.9204,VALID,0,VALID,24.9087,VALID,350,VALID,0.842188,
2011-12-23, 02:17:04,VALID,998.395,VALID,0,VALID,91.9051,VALID,0,VALID,24.9282,VALID,347,VALID,0.543359,
2011-12-23, 02:18:04,VALID,998.403,VALID,0,VALID,91.8975,VALID,0,VALID,24.9087,VALID,349,VALID,0.433594,
2011-12-23, 02:19:04,VALID,998.417,VALID,0,VALID,92.0272,VALID,0,VALID,24.9087,VALID,348,VALID,0.0714844,
2011-12-23, 02:20:04,VALID,998.439,VALID,0,VALID,92.0119,VALID,0,VALID,24.9282,VALID,339,VALID,0.167969,
2011-12-23, 02:21:04,VALID,998.453,VALID,0,VALID,92.1111,VALID,0,VALID,24.9282,VALID,340,VALID,0.106641,
2011-12-23, 02:22:04,VALID,998.455,VALID,0,VALID,92.2866,VALID,0,VALID,24.969,VALID,340,VALID,0.0347656,
2011-12-23, 02:23:04,VALID,998.451,VALID,0,VALID,92.2866,VALID,0,VALID,24.9495,VALID,340,VALID,0,
2011-12-23, 02:24:04,VALID,998.457,VALID,0,VALID,92.195,VALID,0,VALID,24.9263,VALID,336,VALID,0.642969,
2011-12-23, 02:25:04,VALID,998.431,VALID,0,VALID,92.1416,VALID,0,VALID,24.9671,VALID,294,VALID,0.782422,
2011-12-23, 02:26:04,VALID,998.432,VALID,0,VALID,91.9662,VALID,0,VALID,24.9671,VALID,299,VALID,0.888281,
2011-12-23, 02:27:04,VALID,998.448,VALID,0,VALID,91.7983,VALID,0,VALID,24.9866,VALID,288,VALID,0.926562,
2011-12-23, 02:28:04,VALID,998.43,VALID,0,VALID,91.5695,VALID,0,VALID,25.0255,VALID,290,VALID,0.779688,
2011-12-23, 02:29:04,VALID,998.377,VALID,0,VALID,91.5923,VALID,0,VALID,25.0858,VALID,290,VALID,0.358203,
2011-12-23, 02:30:04,VALID,998.35,VALID,0,VALID,91.5923,VALID,0,VALID,25.0839,VALID,290,VALID,0.148828,
2011-12-23, 02:31:04,VALID,998.338,VALID,0,VALID,91.6229,VALID,0.0815089,VALID,25.1034,VALID,292,VALID,0.0183594,
2011-12-23, 02:32:04,VALID,998.33,VALID,0,VALID,91.455,VALID,0,VALID,25.1229,VALID,352,VALID,1.06602,
2011-12-23, 02:33:04,VALID,998.32,VALID,0,VALID,91.4092,VALID,0,VALID,25.1034,VALID,352,VALID,0.428516,
2011-12-23, 02:34:04,VALID,998.269,VALID,0,VALID,91.2948,VALID,0,VALID,25.1442,VALID,353,VALID,0.722266,
2011-12-23, 02:35:04,VALID,998.235,VALID,0,VALID,91.4932,VALID,0,VALID,25.1423,VALID,345,VALID,0.713281,
2011-12-23, 02:36:04,VALID,998.236,VALID,0,VALID,91.4169,VALID,0,VALID,25.1423,VALID,347,VALID,0.621875,
2011-12-23, 02:37:04,VALID,998.227,VALID,0,VALID,91.4932,VALID,0,VALID,25.1618,VALID,342,VALID,0.129688,
2011-12-23, 02:38:04,VALID,998.234,VALID,0,VALID,91.5237,VALID,0,VALID,25.1832,VALID,325,VALID,0.284375,
2011-12-23, 02:39:04,VALID,998.158,VALID,0,VALID,91.5389,VALID,0.0815089,VALID,25.1618,VALID,326,VALID,0.252344,
2011-12-23, 02:40:04,VALID,998.179,VALID,0,VALID,91.4703,VALID,0,VALID,25.1813,VALID,342,VALID,0.862891,
2011-12-23, 02:41:04,VALID,998.167,VALID,0,VALID,91.6534,VALID,0,VALID,25.1813,VALID,328,VALID,0.451953,
2011-12-23, 02:42:04,VALID,998.149,VALID,0,VALID,91.6,VALID,0,VALID,25.1813,VALID,341,VALID,0.6875,
2011-12-23, 02:43:04,VALID,998.125,VALID,0,VALID,91.6915,VALID,0,VALID,25.1618,VALID,344,VALID,0.183203,
2011-12-23, 02:44:04,VALID,998.122,VALID,0,VALID,91.8822,VALID,0,VALID,25.2027,VALID,317,VALID,0.667969,
2011-12-23, 02:45:04,VALID,998.125,VALID,0,VALID,92.0043,VALID,0,VALID,25.2007,VALID,266,VALID,0.348828,
2011-12-23, 02:46:04,VALID,998.148,VALID,0,VALID,92.0043,VALID,0,VALID,25.2007,VALID,306,VALID,0.702344,
2011-12-23, 02:47:04,VALID,998.131,VALID,0,VALID,92.1492,VALID,0,VALID,25.2202,VALID,284,VALID,1.19258,
2011-12-23, 02:48:04,VALID,998.124,VALID,0,VALID,92.2408,VALID,0,VALID,25.2416,VALID,278,VALID,0.326172,
2011-12-23, 02:49:04,VALID,998.125,VALID,0,VALID,92.2713,VALID,0,VALID,25.2416,VALID,341,VALID,0.888281,
2011-12-23, 02:50:04,VALID,998.116,VALID,0,VALID,92.3857,VALID,0,VALID,25.2806,VALID,286,VALID,0.749219,
2011-12-23, 02:51:04,VALID,998.126,VALID,0,VALID,92.2789,VALID,0,VALID,25.2611,VALID,301,VALID,1.41211,
2011-12-23, 02:52:04,VALID,998.122,VALID,0,VALID,92.2484,VALID,0,VALID,25.3195,VALID,296,VALID,0.840625,
2011-12-23, 02:53:04,VALID,998.103,VALID,0,VALID,92.1111,VALID,0,VALID,25.3584,VALID,281,VALID,1.58477,
2011-12-23, 02:54:04,VALID,998.104,VALID,0,VALID,91.989,VALID,0,VALID,25.376,VALID,321,VALID,0.692969,
2011-12-23, 02:55:04,VALID,998.07,VALID,0,VALID,91.9051,VALID,0,VALID,25.4149,VALID,1,VALID,0.536719,
2011-12-23, 02:56:04,VALID,998.094,VALID,0,VALID,91.928,VALID,0,VALID,25.4344,VALID,357,VALID,0.0734375,
2011-12-23, 02:57:04,VALID,998.096,VALID,0,VALID,91.7602,VALID,0,VALID,25.4149,VALID,317,VALID,1.50234,
2011-12-23, 02:58:04,VALID,998.124,VALID,0,VALID,91.7297,VALID,0,VALID,25.4344,VALID,267,VALID,0.420703,
2011-12-23, 02:59:04,VALID,998.09,VALID,0,VALID,91.7068,VALID,0,VALID,25.4753,VALID,299,VALID,0.869141,
2011-12-23, 03:00:04,VALID,998.116,VALID,0,VALID,91.5847,VALID,0,VALID,25.4734,VALID,284,VALID,0.834375,
2011-12-23, 03:01:04,VALID,998.097,VALID,0,VALID,91.4321,VALID,0,VALID,25.5142,VALID,283,VALID,2.56016,
2011-12-23, 03:02:04,VALID,998.08,VALID,0,VALID,91.2948,VALID,0,VALID,25.5123,VALID,321,VALID,1.05625,
2011-12-23, 03:03:04,VALID,998.062,VALID,0,VALID,90.6235,VALID,0,VALID,25.5123,VALID,301,VALID,2.15195,
2011-12-23, 03:04:04,VALID,998.032,VALID,0,VALID,90.0742,VALID,0,VALID,25.5532,VALID,291,VALID,2.26094,
2011-12-23, 03:05:04,VALID,998.007,VALID,0,VALID,89.9521,VALID,0,VALID,25.5921,VALID,255,VALID,2.18789,
2011-12-23, 03:06:04,VALID,997.932,VALID,0,VALID,89.8224,VALID,0,VALID,25.5902,VALID,336,VALID,1.09766,
2011-12-23, 03:07:04,VALID,997.907,VALID,0,VALID,89.769,VALID,0,VALID,25.6116,VALID,308,VALID,0.898047,
2011-12-23, 03:08:04,VALID,997.895,VALID,0,VALID,89.4105,VALID,0,VALID,25.5921,VALID,275,VALID,1.58281,
2011-12-23, 03:09:04,VALID,997.898,VALID,0,VALID,88.8841,VALID,0,VALID,25.5727,VALID,289,VALID,2.15547,
2011-12-23, 03:10:04,VALID,997.873,VALID,0,VALID,88.3577,VALID,0,VALID,25.5727,VALID,293,VALID,3.0957,
2011-12-23, 03:11:04,VALID,997.838,VALID,0,VALID,88.5179,VALID,0,VALID,25.5727,VALID,360,VALID,1.50859,
2011-12-23, 03:12:04,VALID,997.83,VALID,0,VALID,87.9915,VALID,0,VALID,25.5921,VALID,289,VALID,1.67852,
2011-12-23, 03:13:04,VALID,997.823,VALID,0,VALID,88.2738,VALID,0,VALID,25.6116,VALID,293,VALID,1.95977,
2011-12-23, 03:14:04,VALID,997.794,VALID,0,VALID,88.0373,VALID,0,VALID,25.6116,VALID,305,VALID,1.47812,
2011-12-23, 03:15:04,VALID,997.812,VALID,0,VALID,87.9991,VALID,0,VALID,25.6311,VALID,290,VALID,2.36836,
2011-12-23, 03:16:04,VALID,997.84,VALID,0,VALID,88.1593,VALID,0,VALID,25.6097,VALID,304,VALID,1.46523,
2011-12-23, 03:17:04,VALID,997.826,VALID,0,VALID,88.1059,VALID,0,VALID,25.6311,VALID,287,VALID,1.35938,
2011-12-23, 03:18:04,VALID,997.846,VALID,0,VALID,87.9915,VALID,0,VALID,25.6311,VALID,296,VALID,1.97969,
2011-12-23, 03:19:04,VALID,997.846,VALID,0,VALID,87.9839,VALID,0,VALID,25.67,VALID,293,VALID,2.30898,
2011-12-23, 03:20:04,VALID,997.842,VALID,0,VALID,88.1746,VALID,0,VALID,25.7304,VALID,281,VALID,1.61172,
2011-12-23, 03:21:04,VALID,997.801,VALID,0,VALID,88.1365,VALID,0,VALID,25.709,VALID,299,VALID,1.83945,
2011-12-23, 03:22:04,VALID,997.754,VALID,0,VALID,88.6323,VALID,0,VALID,25.748,VALID,340,VALID,1.34375,
2011-12-23, 03:23:04,VALID,997.825,VALID,0,VALID,88.7391,VALID,0,VALID,25.7869,VALID,339,VALID,0.925391,
2011-12-23, 03:24:04,VALID,997.816,VALID,0,VALID,88.5484,VALID,0,VALID,25.8064,VALID,314,VALID,1.14453,
2011-12-23, 03:25:04,VALID,997.858,VALID,0,VALID,88.6934,VALID,0,VALID,25.8453,VALID,311,VALID,1.01328,
2011-12-23, 03:26:04,VALID,997.859,VALID,0,VALID,88.5866,VALID,0,VALID,25.8648,VALID,293,VALID,1.53711,
2011-12-23, 03:27:04,VALID,997.88,VALID,0,VALID,88.7162,VALID,0,VALID,25.8629,VALID,311,VALID,0.717578,
2011-12-23, 03:28:04,VALID,997.873,VALID,0,VALID,88.8688,VALID,0,VALID,25.8823,VALID,304,VALID,1.11172,
2011-12-23, 03:29:04,VALID,997.878,VALID,0,VALID,89.2045,VALID,0,VALID,25.9447,VALID,286,VALID,0.632813,
2011-12-23, 03:30:04,VALID,997.872,VALID,0,VALID,88.9451,VALID,0,VALID,25.9018,VALID,296,VALID,1.50156,
2011-12-23, 03:31:04,VALID,997.911,VALID,0,VALID,89.0672,VALID,0,VALID,25.9232,VALID,292,VALID,0.607813,
2011-12-23, 03:32:04,VALID,997.925,VALID,0,VALID,89.2121,VALID,0,VALID,25.9427,VALID,285,VALID,0.965234,
2011-12-23, 03:33:04,VALID,997.911,VALID,0,VALID,89.235,VALID,0,VALID,25.9408,VALID,311,VALID,1.08164,
2011-12-23, 03:34:04,VALID,997.898,VALID,0,VALID,89.5478,VALID,0,VALID,25.9622,VALID,267,VALID,1.36133,
2011-12-23, 03:35:04,VALID,997.935,VALID,0,VALID,89.3494,VALID,0,VALID,26.0596,VALID,261,VALID,2.33047,
2011-12-23, 03:36:04,VALID,997.925,VALID,0,VALID,89.0443,VALID,0,VALID,26.1765,VALID,204,VALID,1.02148,
2011-12-23, 03:37:04,VALID,997.936,VALID,0,VALID,88.8383,VALID,0,VALID,26.2544,VALID,255,VALID,1.07383,
2011-12-23, 03:38:04,VALID,997.938,VALID,0,VALID,88.5484,VALID,0,VALID,26.3323,VALID,271,VALID,1.29492,
2011-12-23, 03:39:04,VALID,997.935,VALID,0,VALID,88.2661,VALID,0,VALID,26.3907,VALID,322,VALID,1.55234,
2011-12-23, 03:40:04,VALID,997.942,VALID,0,VALID,87.961,VALID,0,VALID,26.4492,VALID,233,VALID,2.03477,
2011-12-23, 03:41:04,VALID,997.948,VALID,0,VALID,87.9,VALID,0,VALID,26.4881,VALID,203,VALID,0.683984,
2011-12-23, 03:42:04,VALID,997.906,VALID,0,VALID,87.6329,VALID,0,VALID,26.5056,VALID,281,VALID,0.770312,
2011-12-23, 03:43:04,VALID,997.888,VALID,0,VALID,87.427,VALID,0,VALID,26.5446,VALID,263,VALID,1.10586,
2011-12-23, 03:44:04,VALID,997.903,VALID,0,VALID,86.9158,VALID,0,VALID,26.5661,VALID,219,VALID,0.809766,
2011-12-23, 03:45:04,VALID,997.966,VALID,0,VALID,86.9235,VALID,0,VALID,26.605,VALID,262,VALID,0.746875,